1532242800.95,2518,19.75,73880.8,21.25,11.57,11.57,0,*77
1532242802.17,2519,19.75,73880.0,21.25,10.93,10.95,0,*70
1532242803.33,2520,19.81,73880.5,21.21,10.89,10.89,0,*78
1532242804.57,2521,19.75,73876.8,21.17,11.41,11.37,0,*7D
1532242805.78,2522,19.75,73882.8,21.13,10.93,10.83,0,*7A
1532242807.01,2523,19.75,73882.8,21.13,10.83,10.79,0,*7F
1532242808.27,2524,19.75,73878.5,21.07,11.37,11.33,0,*7C
1532242809.47,2525,19.75,73880.3,21.03,11.99,11.99,0,*7D
1532242810.73,2526,19.75,73882.8,21.03,11.75,11.57,0,*7E
1532242811.96,2527,19.81,73880.5,21.03,10.99,10.93,0,*75
1532242813.22,2528,19.81,73882.0,20.99,10.71,10.71,0,*72
1532242814.45,2529,19.75,73878.3,20.95,10.79,10.89,0,*70
1532242815.7,2530,19.75,73876.5,20.95,10.57,10.61,0,*72
1532242816.9,2531,19.81,73878.5,20.91,10.41,10.43,0,*70
1532242818.11,2532,19.81,73880.3,20.85,10.13,10.03,0,*75
1532242819.34,2533,19.81,73882.3,20.83,10.27,10.27,0,*73
1532242820.56,2534,19.75,73876.3,20.81,9.11,9.21,0,*75
1532242821.79,2535,19.75,73876.8,20.77,10.51,10.61,0,*7D
1532242823.02,2536,19.81,73880.0,20.73,10.33,10.37,0,*7D
1532242824.25,2537,19.75,73878.3,20.73,10.47,10.57,0,*79
1532242825.46,2538,19.81,73882.0,20.69,9.91,10.05,0,*49
1532242826.64,2539,19.81,73878.3,20.67,9.63,9.71,0,*70
1532242827.84,2540,19.75,73876.8,20.63,10.27,10.43,0,*7B
1532242829.05,2541,19.81,73880.8,20.61,9.99,10.03,0,*41
1532242830.28,2542,19.81,73882.0,20.57,9.19,9.53,0,*72
1532242831.51,2543,19.75,73876.0,20.55,10.37,10.55,0,*7B
1532242832.71,2544,19.81,73876.5,20.53,9.21,9.35,0,*7B
1532242833.9,2545,19.81,73878.5,20.53,10.03,10.13,0,*7E
1532242835.13,2546,19.81,73880.8,20.51,10.33,10.41,0,*7B
1532242836.39,2547,19.81,73880.0,20.47,9.49,9.61,0,*72
1532242837.6,2548,19.81,73878.3,20.45,10.17,10.27,0,*76
1532242838.83,2549,19.81,73882.3,20.47,10.71,10.89,0,*71
1532242840.09,2550,19.81,73880.3,20.43,10.23,10.41,0,*7E
1532242841.32,2551,19.81,73880.3,20.43,10.47,10.65,0,*7B
1532242842.56,2552,19.81,73882.3,20.43,10.85,10.99,0,*75
1532242843.82,2553,19.81,73882.3,20.43,10.79,10.95,0,*7B
1532242845.05,2554,19.81,73880.0,20.43,10.41,10.55,0,*7B
1532242846.31,2555,19.81,73880.8,20.39,10.61,10.75,0,*77
1532242847.52,2556,19.81,73880.5,20.37,10.95,11.21,0,*71
1532242848.76,2557,19.81,73882.5,20.39,10.95,11.09,0,*74
1532242849.96,2558,19.75,73878.0,20.37,10.95,11.17,0,*7A
1532242851.2,2559,19.81,73882.5,20.37,10.71,10.95,0,*7A
1532242852.41,2560,19.81,73882.5,20.37,11.07,11.21,0,*7E
1532242853.65,2561,19.81,73882.0,20.39,10.71,10.85,0,*7E
1532242854.88,2562,19.81,73880.8,20.37,10.83,11.07,0,*75
1532242856.12,2563,19.81,73882.8,20.37,11.07,11.31,0,*7C
1532242857.35,2564,19.81,73880.8,20.35,10.89,11.03,0,*7F
1532242858.59,2565,19.81,73878.5,20.37,10.95,11.07,0,*75
1532242859.83,2566,19.81,73878.5,20.35,10.17,10.23,0,*79
1532242861.07,2567,19.81,73880.3,20.33,10.57,10.75,0,*79
1532242862.31,2568,19.81,73880.5,20.33,10.19,10.23,0,*7F
1532242863.52,2569,19.81,73880.3,20.31,9.33,9.43,0,*72
1532242864.72,2570,19.81,73882.5,20.29,8.87,8.97,0,*75
1532242865.91,2571,19.81,73882.5,20.29,8.87,9.07,0,*7C
1532242867.13,2572,19.81,73882.8,20.25,9.53,9.71,0,*7A
1532242868.35,2573,19.81,73882.3,20.25,8.75,9.03,0,*7B
1532242869.6,2574,19.81,73882.8,20.21,9.11,9.53,0,*7E
1532242870.82,2575,19.81,73880.0,20.15,9.07,9.49,0,*74
1532242872.0,2576,19.81,73882.3,20.15,8.19,8.69,0,*7A
1532242873.22,2577,19.81,73882.3,20.13,7.45,7.91,0,*73
1532242874.4,2578,19.81,73882.5,20.11,8.09,8.69,0,*71
1532242875.59,2579,19.81,73884.3,20.09,8.69,9.21,0,*72
1532242876.78,2580,19.81,73880.3,20.07,8.27,8.87,0,*7D
1532242877.98,2581,19.81,73880.0,20.09,8.69,9.43,0,*71
1532242879.21,2582,19.81,73880.8,20.07,8.75,9.53,0,*70
1532242880.44,2583,19.81,73882.8,20.05,8.27,9.01,0,*73
1532242881.64,2584,19.81,73880.3,20.03,7.83,8.87,0,*7C
1532242882.84,2585,19.81,73882.5,20.03,8.41,9.63,0,*77
1532242884.04,2586,19.81,73880.8,20.03,8.59,9.95,0,*74
1532242885.22,2587,19.81,73880.8,20.03,9.29,10.69,0,*48
1532242886.45,2588,19.81,73884.8,20.05,9.15,10.47,0,*42
1532242887.66,2589,19.81,73882.0,20.03,9.57,10.69,0,*4F
1532242888.9,2590,19.81,73884.8,20.05,10.13,10.99,0,*76
1532242890.11,2591,19.81,73880.5,20.07,10.69,11.33,0,*79
1532242891.32,2592,19.81,73884.8,20.09,11.21,11.93,0,*73
1532242892.55,2593,19.81,73880.3,20.09,10.95,11.51,0,*72
1532242893.79,2594,19.81,73884.0,20.11,10.31,10.61,0,*70
1532242895.04,2595,19.81,73880.3,20.13,11.09,11.45,0,*7E
1532242896.27,2596,19.81,73880.8,20.13,11.21,11.41,0,*73
1532242897.48,2597,19.81,73878.8,20.13,10.89,11.09,0,*7D
1532242898.69,2598,19.81,73882.5,20.13,11.13,11.21,0,*7A
1532242899.97,2599,19.81,73882.0,20.17,11.61,11.61,0,*7E
1532242901.18,2600,19.81,73880.0,20.15,11.67,11.81,0,*77
1532242902.39,2601,19.81,73882.3,20.17,11.93,11.99,0,*76
1532242903.62,2602,19.81,73878.5,20.17,11.79,11.89,0,*70
1532242904.85,2603,19.81,73882.0,20.17,11.93,12.13,0,*75
1532242906.03,2604,19.81,73882.5,20.23,11.51,11.65,0,*79
1532242907.25,2605,19.81,73882.0,20.23,11.21,11.23,0,*7D
1532242908.46,2606,19.81,73886.3,20.23,11.03,11.21,0,*7C
1532242909.72,2607,19.81,73880.8,20.21,10.61,10.75,0,*7A
1532242910.95,2608,19.81,73882.8,20.23,10.95,11.33,0,*7F
1532242912.21,2609,19.81,73880.5,20.21,11.31,11.57,0,*71
1532242913.41,2610,19.81,73880.8,20.23,11.67,11.89,0,*7B
1532242914.64,2611,19.81,73882.3,20.23,11.95,12.17,0,*73
1532242915.83,2612,19.81,73878.0,20.27,12.43,12.61,0,*7D
1532242917.04,2613,19.81,73882.8,20.27,12.47,12.67,0,*7E
1532242918.24,2614,19.81,73880.5,20.27,11.65,11.67,0,*79
1532242919.45,2615,19.81,73880.0,20.27,10.79,10.89,0,*75
1532242920.65,2616,19.81,73882.3,20.27,9.85,9.95,0,*78
1532242921.86,2617,19.81,73880.5,20.27,10.79,10.89,0,*77
1532242923.1,2618,19.81,73880.0,20.25,10.75,10.69,0,*78
1532242924.27,2619,19.81,73880.3,20.23,9.67,9.71,0,*75
1532242925.5,2620,19.81,73880.5,20.23,10.19,10.27,0,*75
1532242926.7,2621,19.81,73880.5,20.21,10.43,10.43,0,*7B
1532242927.94,2622,19.81,73880.0,20.21,10.55,10.71,0,*7E
1532242929.17,2623,19.81,73876.8,20.21,10.95,11.09,0,*7D
1532242930.41,2624,19.81,73878.3,20.23,11.33,11.45,0,*7D
1532242931.67,2625,19.81,73880.5,20.21,10.23,10.41,0,*7B
1532242932.88,2626,19.81,73880.8,20.17,10.51,10.51,0,*79
1532242934.08,2627,19.81,73880.8,20.15,11.17,11.13,0,*7E
1532242935.28,2628,19.81,73878.5,20.17,10.85,10.85,0,*77
1532242936.53,2629,19.81,73880.0,20.17,11.55,11.61,0,*71
1532242937.75,2630,19.81,73878.3,20.17,11.55,11.55,0,*7E
1532242939.02,2631,19.81,73876.8,20.17,11.57,11.61,0,*7A
1532242940.26,2632,19.81,73882.0,20.17,11.89,12.09,0,*77
1532242941.47,2633,19.81,73880.5,20.23,12.33,12.43,0,*7D
1532242942.7,2634,19.81,73880.8,20.23,11.67,11.67,0,*7D
1532242943.89,2635,19.81,73882.0,20.23,10.69,10.93,0,*79
1532242945.07,2636,19.81,73880.8,20.23,9.91,10.13,0,*4D
1532242946.26,2637,19.81,73880.0,20.23,10.03,10.33,0,*7D
1532242947.46,2638,19.81,73882.5,20.23,9.01,9.33,0,*70
1532242948.66,2639,19.81,73882.5,20.21,9.29,9.67,0,*78
1532242949.89,2640,19.81,73880.8,20.15,9.35,9.53,0,*7B
1532242951.11,2641,19.81,73880.8,20.15,9.95,10.19,0,*46
1532242952.31,2642,19.81,73880.0,20.15,9.53,9.71,0,*79
1532242953.53,2643,19.81,73878.8,20.15,9.85,10.03,0,*4E
1532242954.77,2644,19.81,73880.0,20.13,10.75,10.93,0,*71
1532242955.97,2645,19.81,73882.5,20.11,10.41,10.43,0,*78
1532242957.2,2646,19.81,73880.0,20.11,10.95,10.99,0,*75
1532242958.44,2647,19.81,73880.8,20.11,10.75,10.75,0,*78
1532242959.62,2648,19.81,73880.5,20.11,10.89,10.93,0,*7C
1532242960.86,2649,19.81,73884.0,20.13,10.69,10.75,0,*79
1532242962.12,2650,19.81,73886.0,20.13,11.67,11.79,0,*73
1532242963.38,2651,19.81,73880.3,20.13,11.75,11.79,0,*71
1532242964.62,2652,19.81,73884.5,20.13,12.23,12.33,0,*7F
1532242965.84,2653,19.81,73884.0,20.15,12.43,12.57,0,*7C
1532242967.06,2654,19.81,73882.3,20.17,11.99,12.03,0,*7C
1532242968.26,2655,19.81,73882.3,20.21,11.81,11.85,0,*7C
1532242969.46,2656,19.81,73882.8,20.21,11.81,11.93,0,*78
1532242970.65,2657,19.81,73880.8,20.23,12.51,12.81,0,*75
1532242971.86,2658,19.81,73880.5,20.23,11.95,11.99,0,*7B
1532242973.08,2659,19.81,73880.8,20.23,11.13,11.23,0,*75
1532242974.29,2660,19.81,73880.0,20.23,10.85,10.99,0,*71
1532242975.5,2661,19.81,73882.5,20.23,11.65,11.75,0,*7C
1532242976.68,2662,19.81,73882.0,20.23,11.85,11.89,0,*72
1532242977.91,2663,19.81,73882.0,20.25,12.05,12.19,0,*74
1532242979.14,2664,19.81,73882.5,20.25,11.65,11.75,0,*7F
1532242980.35,2665,19.81,73882.3,20.27,12.33,12.43,0,*7A
1532242981.58,2666,19.81,73880.0,20.27,12.13,12.13,0,*7E
1532242982.76,2667,19.81,73880.5,20.29,12.27,12.27,0,*71
1532242983.99,2668,19.81,73880.5,20.29,11.71,11.75,0,*7A
1532242985.23,2669,19.81,73886.0,20.29,11.31,11.31,0,*7F
1532242986.47,2670,19.81,73880.3,20.29,11.61,11.71,0,*76
1532242987.69,2671,19.81,73882.8,20.31,10.69,10.69,0,*7F
1532242988.9,2672,19.81,73878.0,20.29,10.83,10.93,0,*74
1532242990.14,2673,19.81,73882.5,20.29,10.71,10.83,0,*79
1532242991.33,2674,19.81,73882.0,20.27,10.05,10.13,0,*7A
1532242992.56,2675,19.81,73880.0,20.25,10.37,10.43,0,*7D
1532242993.79,2676,19.81,73882.0,20.25,10.89,11.03,0,*7E
1532242995.04,2677,19.81,73882.0,20.25,11.75,11.95,0,*72
1532242996.23,2678,19.81,73878.5,20.27,11.89,11.99,0,*70
1532242997.45,2679,19.81,73880.8,20.25,11.09,11.13,0,*79
1532242998.63,2680,19.81,73882.3,20.27,12.03,12.19,0,*7D
1532242999.87,2681,19.81,73882.5,20.27,11.23,11.45,0,*77
1532243001.08,2682,19.81,73882.8,20.27,11.65,11.71,0,*71
1532243002.29,2683,19.81,73882.5,20.27,11.37,11.55,0,*71
1532243003.53,2684,19.81,73880.5,20.27,11.23,11.37,0,*77
1532243004.7,2685,19.81,73880.3,20.27,10.89,10.89,0,*73
1532243005.92,2686,19.81,73880.3,20.27,11.45,11.65,0,*72
1532243007.12,2687,19.81,73882.3,20.25,11.55,11.65,0,*70
1532243008.3,2688,19.81,73880.5,20.27,11.81,11.93,0,*7D
1532243009.53,2689,19.81,73880.8,20.27,11.67,11.71,0,*78
1532243010.74,2690,19.88,73884.0,20.29,10.93,11.07,0,*75
1532243011.98,2691,19.81,73880.3,20.25,10.69,10.79,0,*75
1532243013.16,2692,19.81,73882.0,20.27,9.75,9.91,0,*7F
1532243014.41,2693,19.81,73882.3,20.25,9.01,8.89,0,*77
1532243015.63,2694,19.81,73880.3,20.21,8.45,8.41,0,*71
1532243016.88,2695,19.81,73880.0,20.21,9.77,9.77,0,*74
1532243018.07,2696,19.81,73878.5,20.15,10.85,10.93,0,*77
1532243019.29,2697,19.81,73880.0,20.15,10.13,10.27,0,*76
1532243020.51,2698,19.81,73880.8,20.15,10.37,10.51,0,*7E
1532243021.72,2699,19.81,73876.3,20.15,10.71,10.93,0,*73
1532243022.97,2700,19.81,73882.5,20.15,11.45,11.57,0,*7D
1532243024.18,2701,19.81,73880.5,20.15,11.67,11.89,0,*7F
1532243025.41,2702,19.81,73880.5,20.17,12.19,12.33,0,*76
1532243026.64,2703,19.88,73882.0,20.21,10.83,10.89,0,*70
1532243027.9,2704,19.88,73880.8,20.21,11.07,11.27,0,*7F
1532243029.16,2705,19.88,73882.0,20.21,10.65,10.83,0,*74
1532243030.4,2706,19.81,73880.3,20.23,10.79,10.99,0,*73
1532243031.61,2707,19.81,73880.8,20.23,10.65,10.69,0,*70
1532243032.78,2708,19.81,73878.5,20.23,9.47,9.67,0,*71
1532243034.02,2709,19.81,73876.5,20.21,10.33,10.61,0,*77
1532243035.24,2710,19.81,73878.0,20.21,10.33,10.51,0,*7C
1532243036.48,2711,19.81,73876.8,20.17,10.47,10.71,0,*79
1532243037.71,2712,19.88,73882.3,20.17,11.17,11.37,0,*7D
1532243038.93,2713,19.81,73882.8,20.23,11.09,11.33,0,*70
1532243040.19,2714,19.88,73880.8,20.21,11.07,11.41,0,*7E
1532243041.4,2715,19.81,73878.5,20.23,10.75,10.93,0,*77
1532243042.65,2716,19.81,73880.3,20.25,10.27,10.57,0,*7D
1532243043.87,2717,19.88,73882.8,20.25,10.57,10.89,0,*78
1532243045.1,2718,19.81,73882.0,20.25,10.57,10.55,0,*76
1532243046.33,2719,19.81,73882.5,20.25,10.79,11.09,0,*73
1532243047.57,2720,19.88,73884.3,20.25,10.85,11.23,0,*72
1532243048.77,2721,19.88,73882.3,20.27,10.37,10.69,0,*77
1532243050.01,2722,19.88,73882.0,20.27,9.81,10.23,0,*4F
1532243051.22,2723,19.81,73878.8,20.27,9.61,10.13,0,*43
1532243052.43,2724,19.88,73882.3,20.27,9.57,10.03,0,*40
1532243053.64,2725,19.88,73886.8,20.27,10.05,10.57,0,*7F
1532243054.85,2726,19.88,73884.3,20.25,10.33,10.93,0,*73
1532243056.06,2727,19.88,73886.0,20.27,10.05,10.61,0,*78
1532243057.24,2728,19.88,73882.0,20.29,10.43,11.09,0,*74
1532243058.48,2729,19.88,73882.0,20.31,10.79,11.55,0,*7C
1532243059.7,2730,19.88,73886.0,20.29,12.05,12.81,0,*7E
1532243060.94,2731,19.88,73884.0,20.33,11.23,12.05,0,*7F
1532243062.16,2732,19.88,73882.5,20.35,11.55,12.39,0,*74
1532243063.39,2733,19.88,73884.3,20.39,12.47,13.51,0,*76
1532243064.6,2734,19.88,73882.5,20.45,11.17,12.13,0,*7B
1532243065.83,2735,19.88,73882.8,20.45,10.99,12.09,0,*76
1532243067.09,2736,19.88,73882.5,20.47,11.03,12.09,0,*75
1532243068.28,2737,19.88,73882.0,20.53,11.93,13.11,0,*70
1532243069.51,2738,19.88,73880.5,20.57,12.63,13.85,0,*7A
1532243070.74,2739,19.88,73882.0,20.61,12.95,14.21,0,*7E
1532243071.95,2740,19.88,73882.0,20.67,12.67,14.05,0,*7D
1532243073.16,2741,19.88,73880.0,20.71,13.01,14.39,0,*75
1532243074.37,2742,19.88,73882.8,20.73,12.39,13.71,0,*75
1532243075.58,2743,19.88,73880.3,20.79,12.61,13.95,0,*79
1532243076.79,2744,19.88,73882.5,20.83,11.99,13.27,0,*76
1532243078.0,2745,19.88,73882.5,20.83,11.95,13.45,0,*7F
1532243079.23,2746,19.88,73880.5,20.89,12.39,13.61,0,*75
1532243080.41,2747,19.88,73880.0,20.93,12.61,13.79,0,*7B
1532243081.62,2748,19.88,73884.3,20.97,12.87,14.01,0,*70
1532243082.8,2749,19.81,73878.8,21.01,12.73,13.79,0,*7C
1532243084.03,2750,19.88,73882.0,21.03,12.57,13.59,0,*72
1532243085.24,2751,19.88,73880.3,21.05,12.23,13.05,0,*7F
1532243086.47,2752,19.88,73880.8,21.11,12.63,13.45,0,*79
1532243087.67,2753,19.88,73882.0,21.13,12.51,13.51,0,*7E
1532243088.88,2754,19.88,73886.3,21.15,12.43,13.41,0,*7D
1532243090.11,2755,19.88,73882.0,21.19,11.85,12.71,0,*7B
1532243091.32,2756,19.88,73884.3,21.21,11.99,13.01,0,*78
1532243092.56,2757,19.88,73880.3,21.23,12.95,13.91,0,*7D
1532243093.77,2758,19.88,73884.5,21.27,12.47,13.45,0,*70
1532243094.98,2759,19.88,73886.5,21.27,12.77,13.75,0,*71
1532243096.25,2760,19.88,73882.0,21.31,12.71,13.61,0,*7F
1532243097.5,2761,19.88,73886.0,21.37,13.51,14.45,0,*7A
1532243098.75,2762,19.88,73882.0,21.43,12.51,13.27,0,*78
1532243099.96,2763,19.88,73884.0,21.45,12.57,13.41,0,*79
1532243101.17,2764,19.88,73882.5,21.45,13.11,13.95,0,*74
1532243102.41,2765,19.88,73880.8,21.51,13.17,14.09,0,*74
1532243103.63,2766,19.88,73882.3,21.53,12.95,13.69,0,*7F
1532243104.84,2767,19.88,73880.8,21.59,12.77,13.55,0,*77
1532243106.07,2768,19.88,73882.8,21.63,12.43,13.17,0,*70
1532243107.33,2769,19.88,73884.3,21.63,12.67,13.39,0,*7B
1532243108.58,2770,19.88,73886.0,21.65,12.97,13.61,0,*77
1532243109.77,2771,19.88,73880.5,21.67,11.85,12.51,0,*76
1532243110.98,2772,19.88,73880.3,21.67,13.17,13.75,0,*7B
1532243112.23,2773,19.88,73882.8,21.69,13.25,13.91,0,*7F
1532243113.43,2774,19.88,73882.5,21.73,12.73,13.41,0,*7C
1532243114.62,2775,19.88,73884.3,21.75,13.11,14.05,0,*79
1532243115.85,2776,19.88,73886.3,21.81,12.95,13.91,0,*76
1532243117.09,2777,19.88,73884.8,21.83,12.83,13.81,0,*73
1532243118.35,2778,19.88,73884.0,21.85,12.37,13.51,0,*78
1532243119.56,2779,19.88,73882.8,21.89,12.81,14.11,0,*7B
1532243120.78,2780,19.88,73886.8,21.89,13.65,15.01,0,*76
1532243122.03,2781,19.88,73884.5,21.95,14.55,15.91,0,*77
1532243123.24,2782,19.88,73884.5,22.03,14.69,16.11,0,*7C
1532243124.48,2783,19.88,73884.8,22.07,15.25,16.69,0,*7F
1532243125.74,2784,19.88,73882.5,22.11,14.41,15.71,0,*76
1532243126.96,2785,19.88,73882.8,22.17,14.11,15.35,0,*74
1532243128.16,2786,19.88,73886.3,22.19,13.79,15.05,0,*73
1532243129.38,2787,19.88,73882.5,22.27,14.61,15.85,0,*79
1532243130.59,2788,19.88,73886.0,22.33,15.09,16.49,0,*7F
1532243131.82,2789,19.88,73884.0,22.37,15.57,17.01,0,*7C
1532243133.05,2790,19.88,73886.5,22.41,14.75,16.23,0,*75
1532243134.27,2791,19.88,73884.8,22.47,15.05,16.59,0,*79
1532243135.53,2792,19.88,73886.5,22.53,14.25,15.71,0,*75
1532243136.71,2793,19.88,73886.3,22.55,13.41,15.01,0,*70
1532243137.91,2794,19.88,73884.5,22.59,13.07,14.65,0,*7A
1532243139.11,2795,19.88,73884.5,22.59,12.97,14.51,0,*74
1532243140.29,2796,19.88,73882.8,22.63,13.45,15.01,0,*74
1532243141.53,2797,19.88,73882.5,22.65,13.95,15.65,0,*7C
1532243142.78,2798,19.88,73884.8,22.67,12.83,14.29,0,*7E
1532243144.02,2799,19.88,73886.5,22.73,12.33,13.71,0,*7B
1532243145.28,2800,19.88,73886.0,22.73,13.21,14.49,0,*7A
1532243146.49,2801,19.88,73884.5,22.75,14.09,15.55,0,*7C
1532243147.68,2802,19.88,73884.5,22.79,14.65,16.11,0,*7A
1532243148.89,2803,19.88,73882.0,22.85,15.37,16.91,0,*76
1532243150.11,2804,19.88,73884.5,22.87,15.55,16.99,0,*7F
1532243151.35,2805,19.88,73886.3,22.95,14.19,15.47,0,*74
1532243152.61,2806,19.88,73888.0,22.95,12.57,13.99,0,*7E
1532243153.85,2807,19.88,73882.8,22.99,14.61,15.97,0,*78
1532243155.1,2808,19.88,73886.5,23.03,13.85,15.15,0,*72
1532243156.31,2809,19.88,73884.3,23.07,14.35,15.61,0,*78
1532243157.53,2810,19.88,73886.5,23.09,14.89,15.93,0,*74
1532243158.76,2811,19.88,73884.0,23.15,14.19,15.05,0,*7E
1532243160.03,2812,19.88,73884.0,23.17,13.91,14.75,0,*7E
1532243161.25,2813,19.88,73886.0,23.21,14.01,14.69,0,*79
1532243162.5,2814,19.88,73882.3,23.21,14.59,15.31,0,*7F
1532243163.76,2815,19.88,73884.8,23.25,14.91,15.55,0,*7C
1532243164.97,2816,19.88,73882.3,23.27,15.19,15.71,0,*7A
1532243166.24,2817,19.88,73880.0,23.29,15.11,15.71,0,*7D
1532243167.48,2818,19.88,73882.3,23.33,14.29,14.61,0,*73
1532243168.75,2819,19.88,73882.5,23.37,13.81,14.21,0,*77
1532243169.99,2820,19.88,73882.8,23.37,13.05,13.45,0,*74
1532243171.2,2821,19.88,73880.8,23.39,12.97,13.07,0,*77
1532243172.45,2822,19.88,73884.5,23.37,12.81,13.17,0,*7C
1532243173.66,2823,19.88,73882.5,23.37,13.07,13.45,0,*75
1532243174.94,2824,19.88,73882.8,23.37,12.91,13.17,0,*7B
1532243176.16,2825,19.88,73876.5,23.37,13.25,13.59,0,*7E
1532243177.43,2826,19.88,73880.5,23.37,12.83,13.05,0,*79
1532243178.64,2827,19.88,73880.3,23.31,12.37,12.51,0,*71
1532243179.86,2828,19.88,73886.3,23.31,11.61,11.81,0,*70
1532243181.11,2829,19.88,73884.3,23.27,11.45,11.57,0,*7B
1532243182.32,2830,19.88,73884.0,23.27,11.23,11.47,0,*72
1532243183.56,2831,19.88,73882.5,23.23,10.61,10.79,0,*7C
1532243184.8,2832,19.88,73882.0,23.21,10.05,10.41,0,*74
1532243186.05,2833,19.88,73880.8,23.19,9.85,10.27,0,*4E
1532243187.28,2834,19.88,73884.5,23.11,9.91,10.19,0,*49
1532243188.51,2835,19.88,73882.3,23.09,10.37,10.65,0,*7E
1532243189.74,2836,19.88,73880.0,23.07,10.43,10.79,0,*7D
1532243190.92,2837,19.88,73880.5,23.05,9.63,9.99,0,*72
1532243192.14,2838,19.88,73882.0,23.03,10.55,11.07,0,*78
1532243193.38,2839,19.88,73880.5,22.99,10.79,11.21,0,*71
1532243194.58,2840,19.88,73880.5,22.95,10.03,10.43,0,*7B
1532243195.79,2841,19.88,73882.8,22.93,10.85,11.27,0,*71
1532243197.0,2842,19.88,73884.0,22.93,10.65,11.21,0,*7A
1532243198.22,2843,19.88,73882.8,22.89,11.03,11.47,0,*71
1532243199.41,2844,19.88,73886.5,22.89,11.47,11.89,0,*74
1532243200.63,2845,19.88,73886.8,22.89,10.79,11.09,0,*71
1532243201.87,2846,19.88,73882.3,22.87,10.75,11.13,0,*7B
1532243203.11,2847,19.88,73882.8,22.83,11.03,11.37,0,*78
1532243204.33,2848,19.88,73884.5,22.85,11.09,11.45,0,*7E
1532243205.55,2849,19.88,73880.0,22.85,11.61,11.89,0,*71
1532243206.79,2850,19.94,73886.5,22.85,11.61,11.95,0,*74
1532243208.01,2851,19.88,73880.8,22.85,11.85,12.17,0,*76
1532243209.22,2852,19.88,73882.3,22.83,11.61,11.85,0,*71
1532243210.43,2853,19.88,73882.0,22.83,11.31,11.47,0,*7B
1532243211.67,2854,19.88,73880.0,22.81,11.17,11.37,0,*7D
1532243212.91,2855,19.88,73880.5,22.81,11.55,11.79,0,*70
1532243214.15,2856,19.94,73884.5,22.79,11.61,11.79,0,*73
1532243215.39,2857,19.88,73880.3,22.77,11.13,11.45,0,*76
1532243216.6,2858,19.88,73882.5,22.75,10.99,11.17,0,*7F
1532243217.81,2859,19.94,73884.5,22.75,10.99,11.21,0,*7B
1532243219.02,2860,19.88,73882.8,22.75,10.55,10.65,0,*70
1532243220.26,2861,19.88,73882.8,22.73,10.17,10.27,0,*77
1532243221.47,2862,19.94,73886.5,22.71,10.37,10.51,0,*75
1532243222.73,2863,19.88,73880.3,22.65,10.65,10.83,0,*79
1532243223.99,2864,19.88,73882.8,22.65,10.83,10.95,0,*71
1532243225.24,2865,19.94,73886.0,22.65,11.09,11.27,0,*7B
1532243226.48,2866,19.94,73886.3,22.61,10.69,10.79,0,*71
1532243227.72,2867,19.88,73884.5,22.61,10.79,10.85,0,*72
1532243228.95,2868,19.88,73880.5,22.57,10.89,10.99,0,*7A
1532243230.18,2869,19.94,73884.3,22.57,10.99,11.09,0,*72
1532243231.45,2870,19.88,73880.0,22.57,11.03,11.23,0,*70
1532243232.71,2871,19.88,73880.5,22.53,10.19,10.41,0,*7A
1532243233.94,2872,19.88,73882.0,22.53,10.57,10.85,0,*7B
1532243235.12,2873,19.88,73880.8,22.51,10.13,10.43,0,*72
1532243236.38,2874,19.88,73882.3,22.49,10.83,11.03,0,*70
1532243237.62,2875,19.94,73882.0,22.49,10.33,10.65,0,*7B
1532243238.8,2876,19.94,73884.8,22.43,9.21,9.33,0,*72
1532243239.98,2877,19.94,73884.5,22.43,9.07,9.33,0,*77
1532243241.18,2878,19.88,73882.8,22.39,8.83,9.01,0,*79
1532243242.4,2879,19.88,73882.3,22.35,8.29,8.41,0,*71
1532243243.62,2880,19.88,73880.8,22.31,8.37,8.47,0,*7A
1532243244.8,2881,19.94,73886.5,22.27,9.21,9.29,0,*73
1532243245.98,2882,19.94,73884.0,22.27,8.15,8.19,0,*74
1532243247.2,2883,19.88,73882.3,22.19,7.19,7.33,0,*7C
1532243248.43,2884,19.94,73884.5,22.15,8.83,9.01,0,*74
1532243249.62,2885,19.94,73884.5,22.13,8.61,8.59,0,*73
1532243250.81,2886,19.88,73878.0,22.09,8.65,8.75,0,*71
1532243252.04,2887,19.88,73882.8,22.07,9.07,9.11,0,*78
1532243253.25,2888,19.94,73884.3,22.05,9.43,9.49,0,*78
1532243254.48,2889,19.88,73882.3,22.05,9.49,9.53,0,*78
1532243255.68,2890,19.94,73882.0,21.99,9.67,9.71,0,*7A
1532243256.88,2891,19.94,73884.3,21.99,9.25,9.21,0,*78
1532243258.05,2892,19.88,73880.5,21.97,8.69,8.69,0,*71
1532243259.28,2893,19.94,73886.0,21.93,8.41,8.51,0,*75
1532243260.48,2894,19.94,73884.5,21.91,9.21,9.29,0,*79
1532243261.68,2895,19.94,73884.0,21.87,9.77,9.71,0,*71
1532243262.91,2896,19.88,73880.0,21.87,8.29,8.41,0,*7A
1532243264.11,2897,19.94,73884.3,21.83,8.69,8.93,0,*74
1532243265.28,2898,19.94,73884.0,21.83,8.45,8.61,0,*78
1532243266.47,2899,19.94,73886.3,21.79,9.07,9.25,0,*7A
1532243267.64,2900,19.94,73884.3,21.79,8.45,8.79,0,*74
1532243268.89,2901,19.94,73884.5,21.73,8.51,8.89,0,*75
1532243270.12,2902,19.88,73882.3,21.73,8.37,8.61,0,*70
1532243271.32,2903,19.94,73882.8,21.69,8.45,8.79,0,*76
1532243272.54,2904,19.94,73884.8,21.69,8.65,9.01,0,*7D
1532243273.8,2905,19.94,73886.3,21.65,8.13,8.51,0,*75
1532243275.06,2906,19.94,73884.8,21.61,8.55,8.89,0,*75
1532243276.24,2907,19.94,73886.8,21.63,9.29,9.75,0,*7E
1532243277.47,2908,19.94,73886.3,21.61,9.11,9.47,0,*79
1532243278.66,2909,19.94,73886.0,21.59,9.75,10.17,0,*4C
1532243279.83,2910,19.94,73884.5,21.59,9.63,9.95,0,*71
1532243281.05,2911,19.94,73886.3,21.59,9.77,10.05,0,*44
1532243282.3,2912,19.94,73886.3,21.57,8.89,9.11,0,*74
1532243283.54,2913,19.94,73886.0,21.57,9.67,9.89,0,*75
1532243284.81,2914,19.94,73886.3,21.57,10.27,10.19,0,*7F
1532243286.06,2915,19.94,73882.0,21.51,9.15,9.15,0,*75
1532243287.31,2916,19.94,73884.0,21.51,9.53,9.57,0,*72
1532243288.57,2917,19.94,73880.0,21.51,9.11,9.01,0,*76
1532243289.78,2918,19.94,73882.8,21.49,9.07,9.01,0,*77
1532243291.04,2919,19.94,73884.0,21.47,8.89,8.97,0,*71
1532243292.22,2920,19.94,73882.8,21.45,9.29,9.25,0,*7A
1532243293.45,2921,19.94,73886.0,21.43,8.83,8.89,0,*7B
1532243294.69,2922,19.94,73886.8,21.43,10.37,10.47,0,*75
1532243295.91,2923,19.94,73882.5,21.43,10.69,10.69,0,*73
1532243297.14,2924,19.94,73886.3,21.43,10.17,10.13,0,*70
1532243298.36,2925,19.94,73884.3,21.43,10.17,10.17,0,*75
1532243299.57,2926,19.94,73884.5,21.43,10.03,9.99,0,*4D
1532243300.77,2927,19.94,73886.3,21.41,8.93,8.69,0,*70
1532243302.0,2928,19.94,73886.3,21.39,8.89,8.65,0,*77
1532243303.19,2929,19.94,73882.8,21.37,8.83,8.61,0,*76
1532243304.44,2930,19.94,73886.3,21.35,9.61,9.35,0,*71
1532243305.64,2931,19.94,73882.0,21.35,9.43,9.29,0,*7D
1532243306.82,2932,19.94,73884.3,21.29,9.29,9.07,0,*73
1532243308.03,2933,19.94,73882.5,21.29,9.85,9.67,0,*72
1532243309.29,2934,19.94,73882.3,21.27,9.39,9.19,0,*75
1532243310.48,2935,19.94,73880.8,21.25,9.03,8.83,0,*7D
1532243311.7,2936,19.94,73884.8,21.23,9.89,9.71,0,*76
1532243312.95,2937,19.94,73884.5,21.23,9.61,9.49,0,*7A
1532243314.14,2938,19.94,73886.0,21.21,9.19,9.07,0,*72
1532243315.31,2939,19.94,73882.3,21.21,9.21,9.25,0,*78
1532243316.51,2940,19.94,73884.5,21.17,9.43,9.53,0,*76
1532243317.72,2941,19.94,73884.3,21.17,9.61,9.61,0,*76
1532243318.94,2942,19.94,73886.8,21.17,8.71,8.93,0,*79